Location: Newark
(42.7133°N, 87.7910°W)
Time: 13:09:06
(UTC+00:00)

Tiros 1 - Pass Details

Date: 26 September 2019
Orbit: 630 x 664 km, 48.4° (Epoch: 20 October)

Event Time Altitude Azimuth Distance (km) Brightness Sun altitude
Rises 21:36:01 0° 296° (WNW) 2,959 11.1 21.6°
Reaches altitude 10° 21:38:22 10° 296° (WNW) 2,041 10.4 21.2°
Maximum altitude 21:43:04 87° 208° (SSW) 644 7.6 20.4°
Drops below altitude 10° 21:47:43 10° 119° (ESE) 2,013 9.4 19.6°
Sets 21:50:01 0° 119° (ESE) 2,915 10.1 19.2°
